User: anonymous
Location: Vancouver
(49.2500°N, 123.1330°W)
Time: 13:18:41
(UTC-07:00)
Language:

CZ-2C R/B - Orbit

View from above orbital plane
View from above orbital plane
View from above satellite
View from above satellite

Ground track
Ground track

The orbit data is extracted from the following two-line orbital elements,

1 28480U 04046B   14273.45671799  .00000354  00000-0  15119-3 0  4538
2 28480 098.1042 061.4104 0141404 270.4176 155.5930 14.25337037513085
Epoch (UTC): 30 September 2014 10:57:40
Eccentricity: 0.0141404
inclination: 98.1042°
perigee height: 706 km
apogee height: 909 km
right ascension of ascending node: 61.4104°
argument of perigee: 270.4176°
revolutions per day: 14.25337037
mean anomaly at epoch: 155.5930°
orbit number at epoch: 51308

The dashed part of the orbit path shows where the satellite is in the earth's shadow,  

DLR